TimeEST,TemperatureF,Dew PointF,Humidity,Sea Level PressureIn,VisibilityMPH,Wind Direction,Wind SpeedMPH,Gust SpeedMPH,PrecipitationIn,Events,Conditions,WindDirDegrees,DateUTC
12:53 AM,17.1,12.9,84,30.19,8.0,North,3.5,-,N/A,,Clear,10,2013-01-02 05:53:00
1:53 AM,15.1,12.0,88,30.20,6.0,Calm,Calm,-,N/A,,Clear,0,2013-01-02 06:53:00
2:53 AM,12.0,9.0,88,30.21,7.0,Calm,Calm,-,N/A,,Clear,0,2013-01-02 07:53:00
4:53 AM,9.0,5.0,84,30.22,4.0,Calm,Calm,-,N/A,,Clear,0,2013-01-02 09:53:00
5:53 AM,8.1,3.9,83,30.22,6.0,Calm,Calm,-,N/A,,Clear,0,2013-01-02 10:53:00
6:53 AM,7.0,1.9,80,30.23,6.0,Calm,Calm,-,N/A,,Haze,0,2013-01-02 11:53:00
7:53 AM,3.0,-0.9,84,30.25,7.0,Calm,Calm,-,N/A,,Clear,0,2013-01-02 12:53:00
8:53 AM,1.0,-2.0,87,30.27,5.0,Calm,Calm,-,N/A,,Clear,0,2013-01-02 13:53:00
9:53 AM,9.0,6.1,88,30.28,7.0,Calm,Calm,-,N/A,,Clear,0,2013-01-02 14:53:00
10:53 AM,12.9,10.9,92,30.29,7.0,Calm,Calm,-,N/A,,Clear,0,2013-01-02 15:53:00
11:53 AM,19.0,10.9,71,30.27,10.0,Calm,Calm,-,N/A,,Clear,0,2013-01-02 16:53:00
12:53 PM,21.9,10.0,60,30.24,10.0,Calm,Calm,-,N/A,,Clear,0,2013-01-02 17:53:00
1:53 PM,23.0,8.1,53,30.23,10.0,Calm,Calm,-,N/A,,Clear,0,2013-01-02 18:53:00
2:53 PM,24.1,8.1,51,30.22,10.0,Calm,Calm,-,N/A,,Clear,0,2013-01-02 19:53:00
3:53 PM,23.0,9.0,55,30.22,10.0,South,3.5,-,N/A,,Clear,180,2013-01-02 20:53:00
4:53 PM,23.0,8.1,53,30.23,10.0,SW,4.6,-,N/A,,Clear,230,2013-01-02 21:53:00
5:53 PM,21.0,10.9,65,30.25,10.0,SW,3.5,-,N/A,,Clear,230,2013-01-02 22:53:00
6:53 PM,15.1,8.1,74,30.26,10.0,Calm,Calm,-,N/A,,Clear,0,2013-01-02 23:53:00
7:53 PM,14.0,8.1,77,30.26,10.0,Calm,Calm,-,N/A,,Clear,0,2013-01-03 00:53:00
8:53 PM,14.0,9.0,80,30.27,10.0,Calm,Calm,-,N/A,,Clear,0,2013-01-03 01:53:00
9:53 PM,9.0,6.1,88,30.26,10.0,Calm,Calm,-,N/A,,Clear,0,2013-01-03 02:53:00
10:53 PM,10.9,5.0,77,30.25,10.0,Calm,Calm,-,N/A,,Clear,0,2013-01-03 03:53:00
11:53 PM,10.0,5.0,80,30.26,7.0,Calm,Calm,-,N/A,,Clear,0,2013-01-03 04:53:00